Location: Napa Soda Springs
(38.3907°N, 122.2794°W)
Time: 07:22:48
(UTC+00:00)

ATLAS CENTAUR R/B - Pass Details

Date: 29 October 2020
Orbit: 479 x 667 km, 64.7° (Epoch: 26 November)

Event Time Altitude Azimuth Distance (km) Brightness Sun altitude
Rises 12:39:57 0° 181° (S) 2,698 4.8 -22.7°
Reaches altitude 10° 12:42:31 10° 166° (SSE) 1,775 4.1 -22.2°
Maximum altitude 12:45:39 23° 114° (ESE) 1,136 3.6 -21.5°
Drops below altitude 10° 12:48:41 10° 61° (ENE) 1,712 4.7 -20.9°
Sets 12:51:07 0° 46° (NE) 2,577 5.4 -20.5°
